BCS3MD LPPT-EDDP

Flight info

Callsign BCS3MD
Flight time N/A
Altitude 28000
Route IXIDA DCT TOSDI DCT ZMR DCT NEA DCT DGO DCT LPA DCT GOSVI DCT TOPTU DCT TOU DCT GAI DCT MEN DCT NINUN DCT LATAM DCT ETREK DCT LTP DCT SOPLO DCT OMASI DCT KINNI DCT SOSAL DCT KORED DCT BERSU DCT DITON DCT LOKTA DCT ETAGO DCT IBAGA T435 PIBAD T954 GOXLI
Aircraft B752/M-SDE3FGHIM3RWXY/LB1

Departure

Time 2026-05-07 16:39
Airport Lisbon Humberto Delgado Airport (LPPT)

Arrival

Time N/A
Airport Leipzig/Halle Airport (EDDP)
Time Latitude Longitude Altitude Speed Heading
2026-05-07 15:57 38.77978 -9.12953 324 ft 0 kts 304°
2026-05-07 16:08 38.78057 -9.12879 325 ft 0 kts 304°
2026-05-07 16:21 38.78057 -9.12878 325 ft 0 kts 304°
2026-05-07 16:26 38.78051 -9.12867 325 ft 2 kts 304°
2026-05-07 16:27 38.78043 -9.12851 324 ft 2 kts 305°
2026-05-07 16:27 38.78037 -9.12841 323 ft 1 kts 305°
2026-05-07 16:27 38.78033 -9.12823 322 ft 2 kts 261°
2026-05-07 16:27 38.78039 -9.12806 322 ft 1 kts 220°
2026-05-07 16:28 38.78044 -9.12802 321 ft 1 kts 210°
2026-05-07 16:28 38.78046 -9.12800 321 ft 0 kts 212°
2026-05-07 16:30 38.78044 -9.12802 321 ft 2 kts 212°
2026-05-07 16:30 38.78022 -9.12821 323 ft 5 kts 213°
2026-05-07 16:30 38.77975 -9.12859 324 ft 10 kts 213°
2026-05-07 16:31 38.77899 -9.12923 324 ft 15 kts 213°
2026-05-07 16:31 38.77806 -9.13006 322 ft 15 kts 225°
2026-05-07 16:31 38.77764 -9.13125 323 ft 13 kts 258°
2026-05-07 16:31 38.77749 -9.13214 327 ft 7 kts 258°
2026-05-07 16:32 38.77741 -9.13264 330 ft 6 kts 258°
2026-05-07 16:32 38.77725 -9.13329 333 ft 9 kts 240°
2026-05-07 16:32 38.77664 -9.13385 335 ft 10 kts 206°
2026-05-07 16:32 38.77609 -9.13415 336 ft 7 kts 202°
2026-05-07 16:33 38.77557 -9.13442 334 ft 8 kts 202°
2026-05-07 16:33 38.77497 -9.13486 333 ft 10 kts 220°
2026-05-07 16:33 38.77433 -9.13529 332 ft 10 kts 184°
2026-05-07 16:33 38.77345 -9.13516 326 ft 13 kts 173°
2026-05-07 16:34 38.77288 -9.13563 329 ft 6 kts 249°
2026-05-07 16:34 38.77278 -9.13607 333 ft 5 kts 256°
2026-05-07 16:34 38.77268 -9.13660 339 ft 6 kts 256°
2026-05-07 16:34 38.77255 -9.13731 344 ft 10 kts 256°
2026-05-07 16:35 38.77221 -9.13837 347 ft 16 kts 221°
2026-05-07 16:35 38.77105 -9.13912 347 ft 20 kts 202°
2026-05-07 16:35 38.76963 -9.13988 342 ft 23 kts 203°
2026-05-07 16:35 38.76808 -9.14070 337 ft 24 kts 203°
2026-05-07 16:36 38.76678 -9.14140 336 ft 17 kts 203°
2026-05-07 16:36 38.76600 -9.14202 337 ft 10 kts 246°
2026-05-07 16:36 38.76602 -9.14259 337 ft 0 kts 289°
2026-05-07 16:36 38.76602 -9.14260 337 ft 0 kts 289°
2026-05-07 16:37 38.76605 -9.14271 337 ft 2 kts 289°
2026-05-07 16:37 38.76618 -9.14313 337 ft 9 kts 298°
2026-05-07 16:38 38.76696 -9.14355 336 ft 19 kts 11°
2026-05-07 16:38 38.77061 -9.14169 345 ft 98 kts 23°
2026-05-07 16:38 38.77949 -9.13694 364 ft 171 kts 21°
2026-05-07 16:38 38.79165 -9.13073 763 ft 207 kts 20°
2026-05-07 16:39 38.80583 -9.12195 1221 ft 249 kts 25°
2026-05-07 16:39 38.82169 -9.11081 2020 ft 260 kts 27°
2026-05-07 16:39 38.83664 -9.09992 3196 ft 249 kts 28°
2026-05-07 16:39 38.85193 -9.08856 3936 ft 256 kts 30°
2026-05-07 16:40 38.86768 -9.07665 4417 ft 275 kts 31°
2026-05-07 16:40 38.88437 -9.06391 5204 ft 280 kts 32°
2026-05-07 16:40 38.90019 -9.04950 5957 ft 284 kts 44°
2026-05-07 16:40 38.91489 -9.03250 6804 ft 285 kts 44°
2026-05-07 16:41 38.92990 -9.01526 7589 ft 289 kts 44°
2026-05-07 16:41 38.94476 -8.99806 8344 ft 292 kts 44°
2026-05-07 16:41 38.95963 -8.98079 9059 ft 297 kts 45°
2026-05-07 16:41 38.97501 -8.96288 9794 ft 300 kts 44°
2026-05-07 16:42 38.99068 -8.94461 10393 ft 309 kts 44°
2026-05-07 16:42 39.00702 -8.92551 10678 ft 328 kts 44°
2026-05-07 16:42 39.02446 -8.90514 10982 ft 347 kts 44°
2026-05-07 16:42 39.04282 -8.88368 11270 ft 366 kts 44°
2026-05-07 16:43 39.06228 -8.86091 11530 ft 383 kts 44°
2026-05-07 16:43 39.08193 -8.83792 12218 ft 385 kts 44°
2026-05-07 16:43 39.10175 -8.81471 12808 ft 390 kts 44°
2026-05-07 16:43 39.12214 -8.79081 13444 ft 393 kts 44°
2026-05-07 16:44 39.14241 -8.76701 14003 ft 399 kts 43°
2026-05-07 16:44 39.16254 -8.74328 14629 ft 401 kts 44°
2026-05-07 16:44 39.18175 -8.71665 15201 ft 405 kts 50°
2026-05-07 16:44 39.20039 -8.68940 15719 ft 410 kts 49°
2026-05-07 16:45 39.21922 -8.66186 16264 ft 414 kts 49°
2026-05-07 16:45 39.23839 -8.63379 16859 ft 417 kts 49°
2026-05-07 16:45 39.25758 -8.60567 17346 ft 421 kts 48°
2026-05-07 16:45 39.27714 -8.57696 17860 ft 425 kts 48°
2026-05-07 16:46 39.29677 -8.54812 18367 ft 428 kts 48°
2026-05-07 16:46 39.31632 -8.51939 18813 ft 432 kts 48°
2026-05-07 16:46 39.33637 -8.48988 19326 ft 435 kts 47°
2026-05-07 16:46 39.35635 -8.46045 19798 ft 439 kts 47°
2026-05-07 16:47 39.37659 -8.43060 20258 ft 442 kts 47°
2026-05-07 16:47 39.39698 -8.40049 20633 ft 447 kts 47°
2026-05-07 16:47 39.41732 -8.37046 21188 ft 447 kts 47°
2026-05-07 16:47 39.43937 -8.34159 21572 ft 450 kts 42°
2026-05-07 16:48 39.46227 -8.31315 21993 ft 454 kts 43°
2026-05-07 16:48 39.48478 -8.28469 22463 ft 455 kts 43°
2026-05-07 16:48 39.50761 -8.25563 22842 ft 460 kts 43°
2026-05-07 16:48 39.53008 -8.22692 23259 ft 462 kts 43°
2026-05-07 16:49 39.55308 -8.19744 23597 ft 467 kts 43°
2026-05-07 16:49 39.57608 -8.16790 24079 ft 468 kts 43°
2026-05-07 16:49 39.59894 -8.13848 24393 ft 472 kts 43°
2026-05-07 16:49 39.62261 -8.10798 24806 ft 475 kts 43°
2026-05-07 16:50 39.64577 -8.07812 25217 ft 477 kts 43°
2026-05-07 16:50 39.66944 -8.04754 25523 ft 481 kts 43°
2026-05-07 16:50 39.69320 -8.01684 25939 ft 482 kts 42°
2026-05-07 16:50 39.71706 -7.98596 26191 ft 487 kts 43°
2026-05-07 16:51 39.74097 -7.95497 26579 ft 488 kts 42°
2026-05-07 16:51 39.76516 -7.92362 26779 ft 494 kts 42°
2026-05-07 16:51 39.78940 -7.89213 27248 ft 493 kts 42°
2026-05-07 16:51 39.81400 -7.86017 27398 ft 499 kts 42°
2026-05-07 16:52 39.83861 -7.82815 27769 ft 500 kts 42°
2026-05-07 16:52 39.86298 -7.79641 27975 ft 505 kts 42°
2026-05-07 16:52 39.88811 -7.76364 28396 ft 504 kts 41°
2026-05-07 16:53 39.93792 -7.69860 28899 ft 510 kts 41°
2026-05-07 16:53 39.96270 -7.66615 29154 ft 513 kts 41°
2026-05-07 16:53 39.98721 -7.63408 29355 ft 517 kts 41°
2026-05-07 16:53 40.01170 -7.60196 29868 ft 513 kts 41°
2026-05-07 16:54 40.03701 -7.56873 30123 ft 515 kts 41°
2026-05-07 16:54 40.06221 -7.53561 30519 ft 515 kts 40°
2026-05-07 16:54 40.08762 -7.50220 30937 ft 513 kts 40°
2026-05-07 16:54 40.11255 -7.46936 31212 ft 515 kts 40°
2026-05-07 16:55 40.13749 -7.43648 31596 ft 513 kts 40°
2026-05-07 16:55 40.16281 -7.40304 31932 ft 513 kts 40°
2026-05-07 16:55 40.18786 -7.36996 32156 ft 515 kts 40°
2026-05-07 16:55 40.21270 -7.33709 32506 ft 514 kts 40°
2026-05-07 16:56 40.23792 -7.30371 32716 ft 515 kts 40°
2026-05-07 16:56 40.26301 -7.27044 32924 ft 517 kts 40°
2026-05-07 16:56 40.31340 -7.20352 33462 ft 516 kts 40°
2026-05-07 16:57 40.33807 -7.17070 33775 ft 515 kts 40°
2026-05-07 16:57 40.36249 -7.13816 33846 ft 513 kts 40°
2026-05-07 16:57 40.41234 -7.07168 33860 ft 512 kts 40°
2026-05-07 16:58 40.46190 -7.00543 33861 ft 511 kts 39°
2026-05-07 16:58 40.51196 -6.93836 33854 ft 512 kts 40°
2026-05-07 16:59 40.56131 -6.87208 33857 ft 513 kts 39°
2026-05-07 16:59 40.61118 -6.80494 33860 ft 511 kts 39°
2026-05-07 17:00 40.66084 -6.73796 33850 ft 509 kts 39°
2026-05-07 17:00 40.71007 -6.67139 33850 ft 509 kts 39°
2026-05-07 17:01 40.75957 -6.60432 33859 ft 508 kts 39°
2026-05-07 17:01 40.80870 -6.53759 33863 ft 508 kts 39°
2026-05-07 17:02 40.85732 -6.47140 33863 ft 508 kts 39°
2026-05-07 17:02 40.90536 -6.40585 33864 ft 507 kts 39°
2026-05-07 17:03 40.95404 -6.33927 33862 ft 504 kts 40°
2026-05-07 17:03 41.00240 -6.27266 33858 ft 508 kts 39°
2026-05-07 17:04 41.05139 -6.21512 33853 ft 499 kts 35°
2026-05-07 17:04 41.10307 -6.15444 33858 ft 498 kts 35°
2026-05-07 17:05 41.15414 -6.09375 33865 ft 500 kts 36°
2026-05-07 17:05 41.20512 -6.03276 33868 ft 498 kts 35°
2026-05-07 17:06 41.25608 -5.97157 33869 ft 497 kts 35°
2026-05-07 17:06 41.30719 -5.91007 33871 ft 498 kts 35°
2026-05-07 17:07 41.35829 -5.84841 33866 ft 499 kts 35°
2026-05-07 17:07 41.40951 -5.78645 33866 ft 498 kts 35°
2026-05-07 17:08 41.46072 -5.72437 33872 ft 497 kts 35°
2026-05-07 17:08 41.51088 -5.66054 33869 ft 504 kts 43°
2026-05-07 17:09 41.54887 -5.58101 33867 ft 516 kts 59°
2026-05-07 17:09 41.57867 -5.49340 33862 ft 518 kts 60°
2026-05-07 17:10 41.60796 -5.40593 33860 ft 517 kts 60°
2026-05-07 17:10 41.63696 -5.31853 33854 ft 515 kts 61°
2026-05-07 17:11 41.66585 -5.23103 33861 ft 517 kts 61°
2026-05-07 17:11 41.69462 -5.14354 33870 ft 514 kts 62°
2026-05-07 17:12 41.72287 -5.05737 33886 ft 515 kts 62°
2026-05-07 17:12 41.75113 -4.97082 33885 ft 515 kts 61°
2026-05-07 17:13 41.77880 -4.88580 33894 ft 509 kts 62°
2026-05-07 17:13 41.80666 -4.80005 33890 ft 511 kts 62°
2026-05-07 17:14 41.83482 -4.71303 33894 ft 510 kts 62°
2026-05-07 17:14 41.86278 -4.62630 33892 ft 508 kts 62°
2026-05-07 17:15 41.89029 -4.54073 33890 ft 508 kts 62°
2026-05-07 17:15 41.91790 -4.45459 33884 ft 506 kts 62°
2026-05-07 17:16 41.94521 -4.36909 33874 ft 504 kts 62°
2026-05-07 17:16 41.97198 -4.28505 33871 ft 507 kts 63°
2026-05-07 17:17 41.99931 -4.19895 33866 ft 505 kts 63°
2026-05-07 17:17 42.02602 -4.11456 33870 ft 504 kts 63°
2026-05-07 17:18 42.05566 -4.03002 33872 ft 503 kts 61°
2026-05-07 17:18 42.08553 -3.94543 33880 ft 502 kts 61°
2026-05-07 17:19 42.11432 -3.86361 33898 ft 503 kts 62°
2026-05-07 17:19 42.14397 -3.77905 33905 ft 502 kts 62°
2026-05-07 17:20 42.17300 -3.69598 33908 ft 503 kts 61°
2026-05-07 17:20 42.20239 -3.61169 33912 ft 501 kts 62°
2026-05-07 17:21 42.23143 -3.52810 33915 ft 502 kts 62°
2026-05-07 17:21 42.26090 -3.44302 33919 ft 503 kts 62°
2026-05-07 17:22 42.29036 -3.35772 33927 ft 502 kts 62°
2026-05-07 17:22 42.31957 -3.27286 33918 ft 502 kts 63°
2026-05-07 17:23 42.34848 -3.18862 33927 ft 501 kts 63°
2026-05-07 17:23 42.37743 -3.10402 33930 ft 502 kts 63°
2026-05-07 17:24 42.40638 -3.01915 33927 ft 501 kts 63°
2026-05-07 17:24 42.43494 -2.93435 33931 ft 502 kts 67°
2026-05-07 17:25 42.45132 -2.84294 33937 ft 503 kts 85°
2026-05-07 17:25 42.45430 -2.75031 33926 ft 504 kts 88°
2026-05-07 17:26 42.45622 -2.65620 33924 ft 503 kts 89°
2026-05-07 17:26 42.45768 -2.56185 33922 ft 501 kts 89°
2026-05-07 17:27 42.45889 -2.46929 33919 ft 501 kts 89°
2026-05-07 17:27 42.45999 -2.37579 33920 ft 501 kts 90°
2026-05-07 17:28 42.46828 -2.28387 33925 ft 500 kts 78°
2026-05-07 17:28 42.48307 -2.19364 33913 ft 501 kts 78°
2026-05-07 17:29 42.49804 -2.10256 33919 ft 499 kts 78°
2026-05-07 17:29 42.51249 -2.01471 33911 ft 498 kts 78°
2026-05-07 17:30 42.52721 -1.92499 33916 ft 499 kts 78°
2026-05-07 17:30 42.54207 -1.83398 33923 ft 498 kts 78°
2026-05-07 17:31 42.55691 -1.74270 33922 ft 498 kts 79°
2026-05-07 17:31 42.57161 -1.65173 33931 ft 498 kts 79°
2026-05-07 17:32 42.58628 -1.56047 33929 ft 497 kts 79°
2026-05-07 17:32 42.60080 -1.46966 33938 ft 497 kts 79°
2026-05-07 17:33 42.61540 -1.37785 33937 ft 496 kts 79°
2026-05-07 17:33 42.62957 -1.28830 33935 ft 495 kts 80°
2026-05-07 17:34 42.64380 -1.19783 33936 ft 493 kts 80°
2026-05-07 17:34 42.65794 -1.10754 33943 ft 494 kts 80°
2026-05-07 17:35 42.67162 -1.01968 33954 ft 492 kts 80°
2026-05-07 17:35 42.68102 -0.95907 33953 ft 490 kts 80°
2026-05-07 17:36 42.69427 -0.87315 33959 ft 493 kts 80°
2026-05-07 17:36 42.70831 -0.78168 33954 ft 493 kts 80°
2026-05-07 17:37 42.72219 -0.69072 33960 ft 494 kts 80°
2026-05-07 17:37 42.73583 -0.60081 33965 ft 496 kts 80°
2026-05-07 17:38 42.74963 -0.50938 33963 ft 495 kts 80°
2026-05-07 17:38 42.76318 -0.41907 33966 ft 496 kts 81°
2026-05-07 17:39 42.77665 -0.32876 33967 ft 495 kts 81°
2026-05-07 17:39 42.79166 -0.23768 33968 ft 497 kts 74°
2026-05-07 17:40 42.82180 -0.15500 33983 ft 504 kts 56°
2026-05-07 17:40 42.86103 -0.08771 33970 ft 506 kts 52°
2026-05-07 17:41 42.90615 -0.01205 33974 ft 506 kts 52°
2026-05-07 17:41 42.94971 0.06085 33988 ft 507 kts 52°
2026-05-07 17:42 42.99332 0.13392 33975 ft 509 kts 52°
2026-05-07 17:42 43.03693 0.20712 33986 ft 508 kts 52°
2026-05-07 17:43 43.08086 0.28104 33978 ft 509 kts 52°
2026-05-07 17:43 43.12384 0.35354 33965 ft 508 kts 52°
2026-05-07 17:44 43.16815 0.42845 33963 ft 509 kts 52°
2026-05-07 17:44 43.21212 0.50299 33962 ft 511 kts 52°
2026-05-07 17:45 43.25604 0.57762 33940 ft 510 kts 52°
2026-05-07 17:45 43.30019 0.65285 33932 ft 512 kts 53°
2026-05-07 17:46 43.34393 0.72757 33925 ft 510 kts 53°
2026-05-07 17:46 43.38798 0.80300 33926 ft 511 kts 53°
2026-05-07 17:47 43.43192 0.87845 33923 ft 511 kts 53°
2026-05-07 17:47 43.47538 0.95326 33921 ft 511 kts 53°
2026-05-07 17:48 43.51917 1.02882 33916 ft 512 kts 53°
2026-05-07 17:48 43.56260 1.10397 33912 ft 515 kts 53°
2026-05-07 17:49 43.60712 1.18122 33916 ft 515 kts 53°
2026-05-07 17:49 43.65132 1.25810 33919 ft 513 kts 53°
2026-05-07 17:50 43.69517 1.33601 33921 ft 514 kts 55°
2026-05-07 17:50 43.73748 1.41536 33922 ft 512 kts 55°
2026-05-07 17:51 43.77976 1.49470 33919 ft 514 kts 55°
2026-05-07 17:51 43.82202 1.57420 33921 ft 515 kts 54°
2026-05-07 17:52 43.86400 1.65334 33918 ft 514 kts 55°
2026-05-07 17:52 43.90562 1.73204 33916 ft 514 kts 55°
2026-05-07 17:53 43.94671 1.80992 33917 ft 516 kts 55°
2026-05-07 17:53 43.98788 1.89152 33919 ft 516 kts 57°
2026-05-07 17:54 44.02776 1.97156 33920 ft 516 kts 57°
2026-05-07 17:54 44.06856 2.05366 33919 ft 515 kts 57°
2026-05-07 17:55 44.10903 2.13532 33920 ft 517 kts 56°
2026-05-07 17:55 44.14978 2.21776 33928 ft 517 kts 57°
2026-05-07 17:56 44.19007 2.29952 33931 ft 518 kts 56°
2026-05-07 17:56 44.23070 2.38218 33939 ft 518 kts 56°
2026-05-07 17:57 44.26398 2.45009 33943 ft 519 kts 56°
2026-05-07 17:57 44.31138 2.54706 33955 ft 519 kts 56°
2026-05-07 17:58 44.35166 2.62971 33954 ft 520 kts 56°
2026-05-07 17:58 44.39169 2.71208 33960 ft 518 kts 57°
2026-05-07 17:59 44.43050 2.79219 33955 ft 519 kts 57°
2026-05-07 17:59 44.47051 2.87501 33960 ft 519 kts 57°
2026-05-07 18:00 44.51023 2.95744 33954 ft 519 kts 57°
2026-05-07 18:00 44.55027 3.04078 33963 ft 519 kts 57°
2026-05-07 18:01 44.58932 3.12230 33974 ft 517 kts 56°
2026-05-07 18:01 44.62651 3.20791 33971 ft 518 kts 61°
2026-05-07 18:02 44.67974 3.34002 33974 ft 517 kts 61°
2026-05-07 18:03 44.71485 3.42778 33976 ft 519 kts 61°
2026-05-07 18:03 44.75027 3.51663 33978 ft 519 kts 61°
2026-05-07 18:04 44.78538 3.60504 33980 ft 518 kts 61°
2026-05-07 18:04 44.82045 3.69361 33973 ft 517 kts 62°
2026-05-07 18:05 44.85519 3.78165 33974 ft 516 kts 62°
2026-05-07 18:05 44.88974 3.86945 33974 ft 516 kts 62°
2026-05-07 18:06 44.92439 3.95781 33976 ft 515 kts 62°
2026-05-07 18:06 44.95867 4.04550 33981 ft 515 kts 62°
2026-05-07 18:07 44.99337 4.13454 33973 ft 515 kts 62°
2026-05-07 18:07 45.02770 4.22290 33974 ft 512 kts 62°
2026-05-07 18:08 45.06191 4.31127 33967 ft 512 kts 61°
2026-05-07 18:08 45.09588 4.39929 33974 ft 513 kts 61°
2026-05-07 18:09 45.12994 4.48781 33970 ft 513 kts 61°
2026-05-07 18:09 45.16379 4.57607 33965 ft 514 kts 62°
2026-05-07 18:10 45.19775 4.66493 33963 ft 514 kts 62°
2026-05-07 18:10 45.23162 4.75379 33950 ft 514 kts 62°
2026-05-07 18:11 45.26550 4.84299 33945 ft 515 kts 62°
2026-05-07 18:11 45.29892 4.93127 33943 ft 515 kts 62°
2026-05-07 18:12 45.33275 5.02090 33941 ft 515 kts 62°
2026-05-07 18:12 45.36631 5.11015 33952 ft 515 kts 62°
2026-05-07 18:13 45.39995 5.19989 33961 ft 514 kts 62°
2026-05-07 18:13 45.43298 5.28826 33975 ft 515 kts 62°
2026-05-07 18:14 45.46634 5.37782 33975 ft 515 kts 61°
2026-05-07 18:14 45.50780 5.45982 33986 ft 513 kts 43°
2026-05-07 18:15 45.55966 5.52799 33973 ft 513 kts 40°
2026-05-07 18:15 45.61169 5.59504 33969 ft 511 kts 40°
2026-05-07 18:16 45.66415 5.66243 33967 ft 511 kts 40°
2026-05-07 18:16 45.71631 5.72949 33966 ft 511 kts 40°
2026-05-07 18:17 45.76883 5.79696 33965 ft 511 kts 40°
2026-05-07 18:17 45.82152 5.86474 33968 ft 512 kts 40°
2026-05-07 18:18 45.87351 5.93181 33967 ft 512 kts 40°
2026-05-07 18:18 45.92561 5.99917 33978 ft 511 kts 40°
2026-05-07 18:19 45.97791 6.06698 33975 ft 510 kts 40°
2026-05-07 18:19 46.02933 6.13382 33982 ft 510 kts 40°
2026-05-07 18:20 46.08038 6.20036 33984 ft 509 kts 40°
2026-05-07 18:20 46.13039 6.27016 33985 ft 510 kts 42°
2026-05-07 18:21 46.18053 6.34146 33990 ft 510 kts 42°
2026-05-07 18:21 46.23044 6.41261 34006 ft 510 kts 42°
2026-05-07 18:22 46.28043 6.48404 34013 ft 510 kts 42°
2026-05-07 18:22 46.32907 6.55371 34010 ft 510 kts 42°
2026-05-07 18:23 46.37857 6.62480 34016 ft 510 kts 42°
2026-05-07 18:23 46.42853 6.69675 34000 ft 510 kts 43°
2026-05-07 18:24 46.47748 6.76744 34007 ft 509 kts 43°
2026-05-07 18:24 46.52689 6.83897 34011 ft 510 kts 43°
2026-05-07 18:25 46.57435 6.91431 34012 ft 511 kts 49°
2026-05-07 18:25 46.61905 6.99417 34012 ft 511 kts 49°
2026-05-07 18:26 46.66324 7.07363 34013 ft 511 kts 49°
2026-05-07 18:26 46.70649 7.15179 34010 ft 510 kts 49°
2026-05-07 18:27 46.74998 7.23063 34007 ft 510 kts 49°
2026-05-07 18:27 46.79356 7.30988 34007 ft 511 kts 49°
2026-05-07 18:28 46.83647 7.38816 34007 ft 510 kts 49°
2026-05-07 18:28 46.87862 7.46538 34005 ft 511 kts 49°
2026-05-07 18:29 46.92153 7.54426 34008 ft 511 kts 49°